Regional Weather Roundup
Issued by NWS

Home | Current Version | Previous Version | Text Only | Print | Product List | Glossary Off
Versions: 1 2 3 4 5 6 7 8 9 10 11 12 13 14 15 16 17 18 19 20 21 22 23 24 25 26 27 28 29 30 31 32 33 34 35 36 37 38 39 40 41 42 43 44 45 46 47 48 49 50

126
ASUS43 KIND 181809
RWRIN

WEATHER ROUNDUP FOR INDIANA
NATIONAL WEATHER SERVICE INDIANAPOLIS IN
200 PM EDT WED OCT 18 2017

NOTE: "FAIR" INDICATES FEW OR NO CLOUDS BELOW 12,000 FEET WITH NO
SIGNIFICANT WEATHER AND/OR OBSTRUCTIONS TO VISIBILITY.

* - STATION DOES NOT REPORT WEATHER SUCH AS PRECIPITATION OR FOG.

+ - STATION NOT QUALITY CONTROLLED BY THE NATIONAL WEATHER SERVICE.
    USE DATA WITH CAUTION...ESPECIALLY DEWPOINT AND RELATIVE
    HUMIDITY OBSERVATIONS.

INZ001>003-010>013-019-020-181900-
NORTHWEST INDIANA

CITY           SKY/WX    TMP DP  RH WIND       PRES   REMARKS
GARY /AIRPORT/ SUNNY     68  39  34 S12G23    30.13F
KNOX *+        SUNNY     66  41  39 S16G24    30.17F
LA PORTE +     SUNNY     65  43  43 S12G22    30.16F
6HR MIN TEMP:  42; 6HR MAX TEMP:  65; 6HR PCP:  0.01;

MICHIGAN CITY+ SUNNY     66  43  42 S14G22    30.14F
MONTICELLO +   SUNNY     66  39  37 S10G18    30.19F
6HR MIN TEMP:  46; 6HR MAX TEMP:  66;

RENSSELAER +   SUNNY     68  27  21 SW16      30.17F
VALPARAISO     SUNNY     68  43  40 S14G28    30.15F
6HR MIN TEMP:  45; 6HR MAX TEMP:  68;


$$

LMZ046-743>745-181900-
SOUTHERN LAKE MICHIGAN

STATION/POSITION TIME  TEMP    WIND        PRES    WAVE
                       AIR SEA DIR/SP/G            HT
                 (UTC) (F)     (DEG/KT/KT) (MB)    (FT)
BURNS HARBOR     1740   65     180/ 11/ 20 1021.0F
MICHIGAN CITY    1740   64     180/ 16/ 19   N/A
5NW MICH CITY    1800   63 57  200/ 16/ 19   N/A     2

$$

INZ004-005-014>016-021>024-181900-
NORTH CENTRAL INDIANA

CITY           SKY/WX    TMP DP  RH WIND       PRES   REMARKS
ELKHART        SUNNY     66  41  39 S14G21    30.17F
GOSHEN         SUNNY     65  40  39 SW14      30.18F
6HR MIN TEMP:  46; 6HR MAX TEMP:  65;

LOGANSPORT +   SUNNY     64  41  42 S14G20    30.21F
PERU/GRISSOM   SUNNY     67  43  41 S12       30.21F
6HR MIN TEMP:  42; 6HR MAX TEMP:  67;

SOUTH BEND     SUNNY     66  42  41 S15       30.16F
6HR MIN TEMP:  45; 6HR MAX TEMP:  66;

WARSAW +       SUNNY     64  41  42 S10       30.20F

$$

INZ006>009-017-018-025>027-181900-
NORTHEAST INDIANA

CITY           SKY/WX    TMP DP  RH WIND       PRES   REMARKS
AUBURN +       SUNNY     64  37  36 S10G17    30.22F
FORT WAYNE     MOSUNNY   67  41  38 S15G21    30.22F
6HR MIN TEMP:  40; 6HR MAX TEMP:  67;

HUNTINGTON +   SUNNY     65  39  38 SW12G18   30.21F
6HR MIN TEMP:  43; 6HR MAX TEMP:  66;

KENDALLVILLE + SUNNY     66  41  40 SW14G24   30.21F

$$

INZ028-029-035-036-043>045-051>053-181900-
WEST CENTRAL INDIANA

CITY           SKY/WX    TMP DP  RH WIND       PRES   REMARKS
CRAWFORDSVL +  SUNNY     64  43  45 S12G17    30.21F
GREENCASTLE +  SUNNY     64  43  45 S8        30.24F
LAFAYETTE      SUNNY     66  41  40 SW10G21   30.20F
6HR MIN TEMP:  40; 6HR MAX TEMP:  66;

TERRE HAUTE    SUNNY     68  43  40 S12G23    30.22F
6HR MIN TEMP:  40; 6HR MAX TEMP:  68;


$$

INZ030>032-037>040-046>048-054>057-064-065-181900-
CENTRAL INDIANA

CITY           SKY/WX    TMP DP  RH WIND       PRES   REMARKS
ANDERSON       SUNNY     66  41  39 S12G17    30.24F
CP ATTERBURY + SUNNY     68  43  40 SW10G20   30.25F
COLUMBUS       MOSUNNY   66  37  34 S10       30.25F
FISHERS *+     SUNNY     66  48  52 S10       30.23F
FRANKFORT +    MOSUNNY   70  43  37 SW12G17   30.23F
6HR MIN TEMP:  42; 6HR MAX TEMP:  70;

GREENWOOD *+   SUNNY     71  45  39 SW10      30.25F
6HR MIN TEMP:  46; 6HR MAX TEMP:  71;

INDIANAPOLIS   MOSUNNY   67  44  43 SW9       30.23F
6HR MIN TEMP:  43; 6HR MAX TEMP:  67;

-EAGLE CREEK   SUNNY     66  42  41 S9G18     30.22F
6HR MIN TEMP:  40; 6HR MAX TEMP:  66;

KOKOMO +       SUNNY     67  42  40 S13       30.22F
6HR MIN TEMP:  40; 6HR MAX TEMP:  67;

MT COMFORT *+  SUNNY     66  48  52 SW10      30.24F
SHELBYVILLE    SUNNY     68  40  35 SW12G18   30.24F
6HR MIN TEMP:  39; 6HR MAX TEMP:  68;

ZIONSVILLE +   SUNNY     65  43  46 S8        30.23F
6HR MIN TEMP:  37; 6HR MAX TEMP:  65;


$$

INZ033-034-041-042-049-050-058-059-181900-
EAST CENTRAL INDIANA

CITY           SKY/WX    TMP DP  RH WIND       PRES   REMARKS
MUNCIE         SUNNY     69  41  36 S9G18     30.23F
6HR MIN TEMP:  44; 6HR MAX TEMP:  69;

RICHMOND +     SUNNY     64  41  42 S13G18    30.27F

$$

INZ060-061-067>069-081>083-085>088-181900-
SOUTHWEST INDIANA

CITY           SKY/WX    TMP DP  RH WIND       PRES   REMARKS
EVANSVILLE     SUNNY     67  45  45 SW10      30.25F
6HR MIN TEMP:  41; 6HR MAX TEMP:  68;

HUNTINGBURG +  SUNNY     68  47  46 SW15      30.26F
6HR MIN TEMP:  42; 6HR MAX TEMP:  68;

WASHINGTON +   SUNNY     70  40  33 S12       30.24F
6HR MIN TEMP:  41; 6HR MAX TEMP:  70;


$$

INZ062-063-066-070>080-084-089>092-181900-
SOUTH CENTRAL AND SOUTHEAST INDIANA

CITY           SKY/WX    TMP DP  RH WIND       PRES   REMARKS
BEDFORD +      SUNNY     68  41  37 SW6       30.24F
BLOOMINGTON    SUNNY     69  43  38 SW13      30.24F
6HR MIN TEMP:  39; 6HR MAX TEMP:  69;

MADISON *+     SUNNY     68  37  32 S6        30.29F
NORTH VERNON + SUNNY     66  41  39 S8        30.27F
SEYMOUR +      SUNNY     70  45  40 SW7       30.26F

$$





USA.gov is the U.S. government's official web portal to all federal, state and local government web resources and services.